Dauntless Aviation
Greetings, Guest! To participate, [sign up for a free account] or [log in]
Airports North America United States Texas
63TE

FLYING S RANCH AIRPORT

KENNARD, TX, USA

Airport Info

Location

Latitude / Longitude: 31°21'12"N / 95°12'20"W
  31°21.2109'N / 95°12.3463'W
  31.3535 / -95.2058
Elevation: 370 ft. (estimated)
Variation: 06E (1985)
From city: 01 miles SW of KENNARD, TX

Operations

Facility use: Private
Sectional chart: HOUSTON
Control tower: no
Boundary ARTCC: HOUSTON
FSS: MONTGOMERY COUNTY [1-800-WX-BRIEF]
Segmented circle: no

Communications

Nearby radio navigation aids

VOR radial/distance VOR name Freq Var
LFK 295oT/27.6 LUFKIN VORTAC 112.10 05E
 
NDB name Hdg/Dist Freq Var ID
NADOS 252oT/26.1 253 05E OC
CHEROKEE COUNTY 179oT/31.0 263 05E JSO
NACOGDOCHES 235oT/31.1 391 05E GXD
PALESTINE 135oT/36.0 375 04E PSN

Services

Runway Information

Runway 14/32

Dimensions: 2000 x 100 ft.
Surface: NATURAL SOIL,NO SPECIAL SURFACE TREATMENT
 
Runway 14
Runway 32
 

Additional Remarks

Instrument Procedures

No published instrument procedures available
Topographic chart at:
Satellite photo at:
Airport distance calculator
From:
Weather Reports

METAR

KDKR
10.5nm SW
KDKR 302335Z AUTO 17010G16KT 5SM -RA FEW001 25/24 A3005 RMK AO2 P0004
KLFK
24.5nm E
KLFK 302353Z AUTO 21007KT 10SM CLR 24/22 A3002 RMK AO2 RAB09E34 SLP162 P0000 60000 T02440217 10339 20239 50005
KOCH
28.1nm NE
KOCH 302355Z AUTO 19006KT 10SM CLR 26/21 A3001 RMK AO1 TSB2256E17 60005 10320 20260 52007
KJSO
30.8nm NW
KJSO 302335Z AUTO 18013G16KT 7SM -TSRA SCT016 BKN031 OVC100 25/22 A3003 RMK AO2 LTG DSNT ALQS P0001 T02480230
KPSN
36.1nm NW
KPSN 302355Z AUTO 10008KT 10SM SCT050 32/21 A2999 RMK AO2 T03210218

TAF

KLFK
24.5nm E
KLFK 301749Z 3018/0118 24006KT P6SM VCSH FEW025 BKN100 FM301900 22008KT P6SM SCT045 SCT150 BKN250 FM302000 21008KT P6SM VCTS BKN050CB BKN090 TEMPO 3020/3023 -TSRA BKN040CB BKN090 FM010000 18006KT P6SM FEW050 BKN090 FM011100 VRB03KT 5SM BR BKN015
Safelog

 

Dauntless Aviation

© 2007-2015 Dauntless Aviation, all rights reserved
Information provided via PilotNav comes from a variety of official and unofficial data sources. As errors are possible, do not use PilotNav for primary flight planning purposes. Verify any information that you receive via PilotNav with current and canonical charts and other official documents. The material in this database is subject to database copyrights held by Dauntless Aviation and may not be copied without the express permission of Dauntless Aviation - licenses for use of part of all of this data are available for purchase; enquire via the Dauntless Aviation helpdesk. A number of mechanisms and markers exist in the database to protect against and identify infringement / copyright. Automated queries against this website are stictly prohibited, and all activity is logged and analyzed.